Location: Coopersdale
(40.3556°N, 78.9372°W)
Time: 08:04:15
(UTC+00:00)

Tiros 1 - Pass Details

Date: 30 January 2021
Orbit: 630 x 664 km, 48.4° (Epoch: 05 March)

Event Time Altitude Azimuth Distance (km) Brightness Sun altitude
Rises 23:38:21 0° 289° (WNW) 2,934 11.6 -12.9°
Reaches altitude 10° 23:40:56 10° 300° (WNW) 2,020 10.4 -13.3°
Maximum altitude 23:45:02 30° 2° (N) 1,142 8.3 -14.1°
Enters shadow 23:47:24 19° 49° (NE) 1,491 8.5 -14.6°
